CAPE
1155 715 340 136 31 0 0 0 0 0 0 0 0 0 0 0 0 0 0 0 0 0
810 496 107 4 0 0 0 0 0 0 0 0 0 0 0 0 0 0 0 0 0 0
208 40 0 0 0 0 0 0 0 0 0 0 0 0 0 0 0 0 0 0 0 0
0 0 0 0 0 0 0 0 0 0 0 0 0 0 0 0 0 0 0 0 0 0
0 0 0 0 0 0 0 0 0 0 0 0 0 0 0 0 0 0 0 0 0 0
0 0 0 0 0 0 0 0 0 0 0 0 0 0 0 0 0 0 0 0 0 0
0 0 0 0 0 0 0 0 0 0 0 0 0 0 0 0 0 0 0 0 0 0
0 0 0 0 0 0 0 0 0 0 0 0 0 0 0 0 0 0 0 0 0 7
0 0 0 0 0 0 0 0 0 0 0 0 0 0 0 0 0 0 0 0 0 0
0 0 0 0 0 0 0 0 0 0 0 0 0 0 0 0 0 0 0 0 0 0
0 0 0 0 0 0 0 0 0 0 0 0 0 0 0 0 0 0 0 0 0 0
0 0 0 0 0 0 0 0 0 0 0 0 0 0 0 0 0 0 0 0 0 0
0 0 0 0 0 0 0 0 0 0 0 0 0 0 0 0 0 0 0 0 0 0
0 0 0 0 0 0 0 0 0 0 0 0 0 0 0 0 0 0 0 0 0 0
CIN
-93 -163 -213 -285 -349 0 0 0 0 0 0 0 0 0 0 0 0 0 0 0 0 0
-145 -205 -320 -118 0 0 0 0 0 0 0 0 0 0 0 0 0 0 0 0 0 0
-232 -345 0 0 0 0 0 0 0 0 0 0 0 0 0 0 0 0 0 0 0 0
0 0 0 0 0 0 0 0 0 0 0 0 0 0 0 0 0 0 0 0 0 0
0 0 0 0 0 0 0 0 0 0 0 0 0 0 0 0 0 0 0 0 0 0
0 0 0 0 0 0 0 0 0 0 0 0 0 0 0 0 0 0 0 0 0 0
0 0 0 0 0 0 0 0 0 0 0 0 0 0 0 0 0 0 0 0 0 -1
0 0 0 0 0 0 0 0 0 0 0 0 0 0 0 0 0 0 0 0 0 -3
0 0 0 0 0 0 0 0 0 0 0 0 0 0 0 0 0 0 0 0 0 0
0 0 0 0 0 0 0 0 0 0 0 0 0 0 0 0 0 0 0 0 0 -0
0 0 0 0 0 0 0 0 0 0 0 0 0 0 0 0 0 0 0 0 0 0
0 0 0 0 0 0 0 0 0 0 0 0 0 0 0 0 0 0 0 0 0 0
0 0 0 0 0 0 0 0 0 0 0 0 0 0 0 0 0 0 0 0 0 0
0 0 0 0 0 0 0 0 0 0 0 0 0 0 0 0 0 0 0 0 0 0
Wind_Speed
6 3 2 3 6 8 9 9 11 11 15 16 14 14 15 17 17 15 18 22 23 24
3 1 3 5 7 9 9 10 12 14 15 16 16 16 18 19 19 18 22 25 26 28
3 3 4 5 7 8 10 12 13 15 16 17 16 17 18 20 22 23 24 26 28 29
2 4 6 7 8 10 12 13 14 15 16 17 18 19 20 22 23 25 28 31 32 33
4 6 7 8 10 12 13 14 15 16 16 19 20 21 22 24 27 29 31 32 34 34
7 7 8 10 11 13 14 15 16 18 18 20 22 23 25 27 29 32 33 34 34 35
7 8 10 11 12 13 14 16 17 18 19 21 23 26 28 31 33 34 33 33 32 31
8 9 10 12 14 15 16 18 18 19 21 22 26 29 32 33 33 32 32 32 31 29
8 9 11 12 14 15 17 18 19 20 22 24 27 31 34 33 32 32 32 31 31 30
8 10 12 13 15 16 17 18 19 20 22 25 29 33 35 34 33 31 32 32 32 29
9 11 13 15 16 16 18 18 19 20 23 26 29 33 35 33 33 33 32 31 28 28
11 13 14 16 17 17 17 19 20 21 23 26 29 32 34 32 32 32 30 29 26 26
13 14 15 16 17 18 18 18 19 20 22 24 28 31 33 32 31 32 30 28 26 25
15 16 17 17 18 19 18 19 20 21 22 24 29 32 33 32 31 30 28 27 27 27
Wind_Direction
167 164 106 43 37 22 25 30 25 15 3 4 12 14 359 341 340 352 348 345 343 338
167 100 75 56 31 29 39 36 18 11 11 15 16 8 359 355 344 349 340 335 336 335
148 112 71 43 45 47 27 24 25 23 20 16 12 8 359 347 340 342 336 335 333 334
96 75 64 50 46 42 37 34 31 25 19 15 12 5 358 348 346 340 331 329 328 328
100 89 70 59 50 42 33 28 24 15 11 358 355 354 348 343 339 334 331 331 328 328
99 84 71 54 40 31 26 18 8 5 5 359 354 348 345 342 336 330 328 329 328 327
87 71 56 42 30 27 18 7 4 3 359 355 349 344 340 337 332 330 331 331 331 331
66 54 42 25 19 16 12 7 4 0 356 351 345 340 337 334 333 334 335 333 333 335
57 28 22 14 11 10 4 2 358 354 351 347 345 340 336 337 337 334 333 335 334 334
32 23 14 10 6 2 1 359 0 357 353 349 345 342 338 337 337 337 335 333 332 333
28 18 8 4 6 6 360 359 359 356 352 350 347 344 342 342 341 340 338 337 338 338
23 16 13 9 6 4 5 1 1 358 356 354 351 350 349 349 349 346 344 344 347 346
20 14 12 7 7 7 7 3 6 4 1 2 357 355 354 353 353 352 352 351 352 353
29 33 34 25 18 12 11 9 5 6 7 7 1 357 356 356 356 357 359 1 359 356